Simultaneous Nadir Overpasses (SNOs) Predictions

Prediction of SNOs between GOES-17 and NOAA-20 Satellite Orbit:

Table of predicted SNOs for the next 14.0 days since TLE Epoch: 7/2/2022
Index Date Time (GOES-17) GOES-17 Lat,Lon NOAA-20 Lat,Lon Distance(km) Time Diff (sec)
1 07/02/2022 22:37:00 -0.03,-137.20 -0.13,-137.59 45.05 80
2 07/03/2022 22:15:36 -0.03,-137.20 0.93,-133.07 471.45 80
3 07/05/2022 10:40:02 0.04,-137.20 0.28,-138.33 128.60 80
4 07/06/2022 10:18:36 0.03,-137.20 -0.72,-133.79 387.54 80
5 07/07/2022 22:43:12 -0.04,-137.18 -0.47,-139.10 217.93 80
6 07/08/2022 22:21:46 -0.03,-137.18 0.53,-134.56 297.65 80
7 07/10/2022 10:46:14 0.03,-137.16 0.61,-139.83 304.26 80
8 07/11/2022 10:24:48 0.02,-137.15 -0.39,-135.30 210.53 80
9 07/12/2022 22:49:23 -0.01,-137.12 -0.79,-140.60 397.06 80
10 07/13/2022 22:27:58 -0.00,-137.10 0.21,-136.07 117.31 80
11 07/15/2022 10:52:25 0.00,-137.07 0.94,-141.34 485.97 80
